Weather History for Conway, SC

Change the Weather History Date:

Monday, May 6, 2013

  Actual Average Record
Temperature  
Mean Temperature 66 °F -  
Max Temperature 77 °F 78 °F 89 °F (2014)
Min Temperature 55 °F 53 °F 46 °F (2011)
Cooling Degree Days 1    
Growing Degree Days 16 (Base 50)    
Moisture  
Dew Point 60 °F    
Average Humidity 83    
Maximum Humidity 100    
Minimum Humidity 38    
Precipitation  
Precipitation 0.44 in - - ()
Sea Level Pressure  
Sea Level Pressure 29.87 in    
Wind  
Wind Speed 5 mph (SSE)    
Max Wind Speed 14 mph    
Max Gust Speed 18 mph    
Visibility 6 miles    
Events Rain , Thunderstorm    
Averages and records for this station are not official NWS values.
T = Trace of Precipitation, MM = Missing Value Source: NWS Daily Summary

Daily Weather History Graph

Daily Weather History Graph

Search for Another Location

Airport:

Trip Planner

Search our weather history database for the weather conditions in past years. The results will help you decide how hot, cold, wet, or windy it might be!

Date:

Astronomy

May. 06, 2013 Rise Set
Actual Time 6:22 AM EDT 8:04 PM EDT
Civil Twilight 5:55 AM EDT 8:31 PM EDT
Nautical Twilight 5:23 AM EDT 9:03 PM EDT
Astronomical Twilight 4:48 AM EDT 9:38 PM EDT
Moon 4:14 AM EDT (5/6) 5:09 PM EDT (5/6)
Length of Visible Light 14h 35m
Length of Day
13h 41m
Waning Crescent, 11% of the Moon is Illuminated
May 6
Waning Crescent
May 9
New
May 18
First Quarter
May 25
Full
May 31
Last Quarter

Hourly Weather History & Observations

Time (EDT) Temp. Dew Point Humidity Pressure Visibility Wind Dir Wind Speed Gust Speed Precip Events Conditions
12:15 AM 64.4 °F 64.4 °F 100% 29.89 in 7.0 mi East 5.8 mph - N/A   Overcast
12:35 AM 64.4 °F 64.4 °F 100% 29.89 in 7.0 mi East 5.8 mph - N/A Rain Light Rain
12:55 AM 64.4 °F 64.4 °F 100% 29.89 in 7.0 mi ESE 8.1 mph - N/A Rain Light Rain
1:15 AM 64.4 °F 64.4 °F 100% 29.88 in 7.0 mi East 9.2 mph - N/A   Overcast
1:35 AM 64.4 °F 64.4 °F 100% 29.88 in 7.0 mi East 6.9 mph - N/A   Overcast
1:55 AM 64.4 °F 64.4 °F 100% 29.87 in 7.0 mi East 9.2 mph - N/A   Overcast
2:15 AM 64.4 °F 64.4 °F 100% 29.86 in 7.0 mi East 5.8 mph - N/A   Overcast
2:35 AM 64.4 °F 64.4 °F 100% 29.86 in 4.0 mi ESE 3.5 mph - 0.07 in Rain Heavy Rain
2:55 AM 62.6 °F 62.6 °F 100% 29.85 in 5.0 mi East 5.8 mph - 0.07 in   Overcast
3:15 AM 64.4 °F 64.4 °F 100% 29.85 in 7.0 mi East 5.8 mph - N/A   Overcast
3:35 AM 64.4 °F 64.4 °F 100% 29.84 in 4.0 mi East 8.1 mph - 0.08 in Rain Heavy Rain
3:55 AM 64.4 °F 64.4 °F 100% 29.84 in 7.0 mi East 5.8 mph - 0.09 in   Overcast
4:15 AM 64.4 °F 64.4 °F 100% 29.84 in 7.0 mi SE 3.5 mph - N/A   Overcast
4:35 AM 64.4 °F 64.4 °F 100% 29.85 in 7.0 mi SSE 4.6 mph - N/A   Overcast
4:55 AM 64.4 °F 64.4 °F 100% 29.84 in 5.0 mi SSE 3.5 mph - 0.03 in Rain Heavy Rain
5:15 AM 64.4 °F 64.4 °F 100% 29.84 in 2.0 mi Calm Calm - 0.17 in Rain Heavy Rain
5:35 AM 64.4 °F 64.4 °F 100% 29.84 in 10.0 mi SSW 4.6 mph - 0.24 in Rain Light Rain
5:55 AM 62.6 °F 62.6 °F 100% 29.84 in 7.0 mi Calm Calm - 0.24 in   Overcast
6:15 AM 62.6 °F 62.6 °F 100% 29.86 in 7.0 mi South 3.5 mph - 0.01 in   Overcast
7:15 AM 62.6 °F 62.6 °F 100% 29.87 in 5.0 mi Calm Calm - N/A Thunderstorm Overcast
7:35 AM 62.6 °F 62.6 °F 100% 29.88 in 5.0 mi South 3.5 mph - N/A   Overcast
7:55 AM 62.6 °F 62.6 °F 100% 29.88 in 5.0 mi Calm Calm - N/A Thunderstorm Overcast
8:15 AM 62.6 °F 62.6 °F 100% 29.88 in 5.0 mi Calm Calm - N/A   Mostly Cloudy
8:35 AM 64.4 °F 64.4 °F 100% 29.89 in 7.0 mi South 3.5 mph - N/A   Mostly Cloudy
8:55 AM 64.4 °F 64.4 °F 100% 29.89 in 5.0 mi SSW 4.6 mph - N/A Thunderstorm Mostly Cloudy
9:15 AM 64.4 °F 62.6 °F 94% 29.89 in 7.0 mi SW 3.5 mph - N/A Thunderstorm Mostly Cloudy
9:35 AM 64.4 °F 62.6 °F 94% 29.90 in 7.0 mi SW 5.8 mph - N/A   Mostly Cloudy
9:55 AM 64.4 °F 60.8 °F 88% 29.91 in 5.0 mi SSW 4.6 mph - N/A   Mostly Cloudy
10:15 AM 66.2 °F 60.8 °F 83% 29.91 in 7.0 mi Calm Calm - N/A Thunderstorm Scattered Clouds
10:35 AM 68.0 °F 60.8 °F 78% 29.91 in 7.0 mi SSW 3.5 mph - N/A   Clear
10:55 AM 69.8 °F 60.8 °F 73% 29.91 in 5.0 mi SSW 3.5 mph - N/A   Haze
11:15 AM 69.8 °F 59.0 °F 68% 29.91 in 7.0 mi SSW 5.8 mph - N/A   Overcast
11:35 AM 69.8 °F 59.0 °F 68% 29.90 in 7.0 mi South 5.8 mph - N/A Thunderstorm Mostly Cloudy
11:55 AM 69.8 °F 59.0 °F 68% 29.90 in 7.0 mi WSW 4.6 mph - N/A   Overcast
12:15 PM 71.6 °F 59.0 °F 64% 29.89 in 7.0 mi SSW 3.5 mph - N/A   Overcast
12:35 PM 73.4 °F 59.0 °F 61% 29.89 in 7.0 mi South 10.4 mph - N/A   Mostly Cloudy
12:55 PM 73.4 °F 59.0 °F 61% 29.88 in 7.0 mi WSW 6.9 mph - N/A   Mostly Cloudy
1:15 PM 71.6 °F 55.4 °F 57% 29.87 in 7.0 mi South 10.4 mph 18.4 mph N/A   Mostly Cloudy
1:35 PM 75.2 °F 57.2 °F 53% 29.87 in 7.0 mi South 8.1 mph 17.3 mph N/A   Scattered Clouds
1:55 PM 73.4 °F 59.0 °F 61% 29.86 in 5.0 mi SSE 9.2 mph - N/A   Haze
2:15 PM 73.4 °F 59.0 °F 61% 29.86 in 7.0 mi SSE 8.1 mph - N/A   Overcast
2:35 PM 75.2 °F 57.2 °F 53% 29.86 in 7.0 mi SSW 8.1 mph - N/A   Scattered Clouds
2:55 PM 75.2 °F 48.2 °F 38% 29.84 in 7.0 mi SE 9.2 mph - N/A   Clear
3:15 PM 77.0 °F 50.0 °F 39% 29.84 in 7.0 mi South 13.8 mph - N/A   Clear
3:35 PM 77.0 °F 50.0 °F 39% 29.83 in 7.0 mi South 9.2 mph - N/A   Clear
3:55 PM 75.2 °F 51.8 °F 44% 29.83 in 7.0 mi SSE 9.2 mph - N/A   Clear
4:15 PM 73.4 °F 51.8 °F 47% 29.83 in 7.0 mi SSE 8.1 mph - N/A   Clear
4:35 PM 73.4 °F 53.6 °F 50% 29.83 in 7.0 mi SSE 10.4 mph 16.1 mph N/A   Clear
4:55 PM 71.6 °F 53.6 °F 53% 29.83 in 5.0 mi SSE 10.4 mph - N/A   Haze
5:15 PM 71.6 °F 55.4 °F 57% 29.83 in 7.0 mi SE 6.9 mph - N/A   Clear
5:35 PM 69.8 °F 57.2 °F 64% 29.83 in 7.0 mi SSE 8.1 mph - N/A   Clear
5:55 PM 69.8 °F 55.4 °F 60% 29.83 in 5.0 mi ESE 6.9 mph - N/A   Haze
6:15 PM 69.8 °F 57.2 °F 64% 29.83 in 7.0 mi SE 6.9 mph - N/A   Clear
6:55 PM 68.0 °F 57.2 °F 68% 29.84 in 7.0 mi SE 4.6 mph - N/A   Clear
7:15 PM 68.0 °F 57.2 °F 68% 29.85 in 7.0 mi SSE 3.5 mph - N/A   Mostly Cloudy
7:35 PM 66.2 °F 59.0 °F 78% 29.86 in 7.0 mi SSE 4.6 mph - N/A   Scattered Clouds
7:55 PM 64.4 °F 59.0 °F 83% 29.86 in 5.0 mi Calm Calm - N/A   Haze
8:15 PM 62.6 °F 59.0 °F 88% 29.87 in 7.0 mi Calm Calm - N/A   Mostly Cloudy
8:35 PM 62.6 °F 62.6 °F 100% 29.88 in 7.0 mi Calm Calm - N/A   Mostly Cloudy
8:55 PM 62.6 °F 62.6 °F 100% 29.88 in 7.0 mi Calm Calm - N/A   Overcast
9:15 PM 60.8 °F 60.8 °F 100% 29.89 in 7.0 mi Calm Calm - N/A   Scattered Clouds
9:35 PM 59.0 °F 59.0 °F 100% 29.89 in 7.0 mi Calm Calm - N/A   Clear
9:55 PM 59.0 °F 59.0 °F 100% 29.90 in 7.0 mi Calm Calm - N/A   Clear
10:15 PM 57.2 °F 57.2 °F 100% 29.91 in 7.0 mi Calm Calm - N/A   Clear
10:55 PM 57.2 °F 57.2 °F 100% 29.91 in 7.0 mi Calm Calm - N/A   Clear
11:15 PM 55.4 °F 55.4 °F 100% 29.91 in 7.0 mi Calm Calm - N/A   Clear
11:35 PM 55.4 °F 55.4 °F 100% 29.91 in 7.0 mi Calm Calm - N/A   Clear
11:55 PM 55.4 °F 55.4 °F 100% 29.91 in 7.0 mi SW 3.5 mph - N/A   Clear